Flag for Switzerland Weather past 2 weeks in Köniz, Bern, Switzerland

Now
32 °F

Clear.


Feels Like: 29 °F
Forecast: 24 / 42 °F
Wind: 3 mph from North

Location: Bern / Belp

Current Time: Mar 5, 2015 at 8:49:36 PM

Latest Report: Mar 5, 2015 at 8:20 PM


Visibility: 10 mi

Pressure: 30.54 "Hg

Humidity: 80%

Dew point: 27 °F

Location of KönizLocation

Historic Weather in Köniz — Graph

°F

Köniz temperature yesterday

Maximum temperature yesterday: 43 °F (at 1:20 AM)
Minimum temperature yesterday: 32 °F (at 9:20 PM)
Average temperature yesterday: 37 °F

Past Weeks' High & Low Weather Summary

 TemperatureHumidityPressure
High52 °F (Feb 20, 2:20 PM)100% (Feb 20, 4:20 AM)30.60 "Hg (Feb 20, 4:20 AM)
Low21 °F (Feb 20, 7:20 AM)24% (Feb 20, 3:50 PM)29.56 "Hg (Feb 21, 9:20 AM)
Average36 °F82%30.03 "Hg
* Reported Feb 18 7:20 PM — Mar 5 7:20 PM, Köniz, Weather by CustomWeather, © 2015

Note: Actual official high and low records may vary slightly from our data, if they occured in-between our weather recording intervals... More about our weather records

Advertising

Köniz weather history for previous 24 hours

 ConditionsComfort  
Time TempWeatherWind HumidityBarometerVisibility
7:20 PM
Thu, Mar 5
32 °FPassing clouds.3 mph80%30.54 "HgN/A
6:50 PM34 °FPassing clouds.5 mph75%30.54 "HgN/A
6:20 PM37 °FPassing clouds.5 mph60%30.54 "HgN/A
5:50 PM39 °FPassing clouds.8 mph56%30.51 "HgN/A
5:20 PM41 °FPassing clouds.7 mph53%30.51 "HgN/A
4:50 PM41 °FScattered clouds.8 mph57%30.51 "HgN/A
4:20 PM41 °FScattered clouds.8 mph53%30.51 "HgN/A
3:50 PM45 °FScattered clouds.10 mph49%30.51 "HgN/A
3:20 PM41 °FScattered clouds.9 mph57%30.51 "HgN/A
2:50 PM41 °FScattered clouds.9 mph49%30.51 "HgN/A
2:20 PM41 °FScattered clouds.7 mph57%30.51 "HgN/A
1:50 PM41 °FScattered clouds.9 mph53%30.51 "HgN/A
1:20 PM41 °FScattered clouds.6 mph57%30.54 "HgN/A
12:50 PM39 °FScattered clouds.7 mph61%30.54 "HgN/A
12:20 PM39 °FBroken clouds.7 mph61%30.54 "HgN/A
11:50 AM37 °FBroken clouds.8 mph65%30.54 "HgN/A
11:20 AM37 °FPartly sunny.10 mph65%30.54 "HgN/A
10:50 AM39 °FScattered clouds.8 mph70%30.54 "HgN/A
10:20 AM37 °FScattered clouds.3 mph70%30.54 "HgN/A
9:50 AM36 °FPassing clouds.3 mph81%30.54 "HgN/A
9:20 AM34 °FPassing clouds.2 mph93%30.51 "HgN/A
8:50 AM32 °FLight snow. Broken clouds.3 mph93%30.54 "Hg4 mi
8:20 AM28 °FLight snow. Partly sunny.1 mph100%30.51 "Hg4 mi
7:50 AM28 °FBroken clouds.1 mph100%30.51 "HgN/A
7:20 AM28 °FPartly sunny.1 mph93%30.51 "Hg4 mi
6:50 AM27 °FPassing clouds.1 mph93%30.48 "Hg4 mi
6:20 AM27 °FIce fog.3 mph100%30.48 "Hg2 mi
5:50 AM28 °FLight fog.2 mph100%30.48 "HgN/A
5:20 AM27 °FIce fog.3 mph100%30.48 "Hg1 mi
4:20 AM30 °FPassing clouds.1 mph100%30.48 "Hg4 mi
3:50 AM30 °FSnow flurries. Partly cloudy.1 mph100%30.48 "Hg5 mi
2:50 AM32 °FSprinkles. Overcast.3 mph93%30.48 "Hg6 mi
2:20 AM32 °FLight snow. Passing clouds.2 mph93%30.48 "Hg2 mi
1:50 AM32 °FPassing clouds.3 mph93%30.45 "HgN/A
1:20 AM30 °FPartly cloudy.3 mph100%30.45 "HgN/A
12:50 AM32 °FPassing clouds.3 mph93%30.45 "HgN/A
12:20 AM32 °FPartly cloudy.2 mph100%30.45 "HgN/A
11:50 PM
Wed, Mar 4
32 °FLight snow. Partly cloudy.1 mph100%30.45 "Hg3 mi
11:20 PM32 °FOvercast.2 mph100%30.45 "HgN/A
10:20 PM32 °FPartly cloudy.5 mph100%30.42 "HgN/A
9:50 PM32 °FPartly cloudy.2 mph100%30.42 "HgN/A
9:20 PM32 °FPassing clouds.1 mph93%30.42 "HgN/A
8:50 PM34 °FPassing clouds.3 mph87%30.39 "HgN/A
8:20 PM34 °FPartly cloudy.2 mph93%30.39 "HgN/A
Weather by CustomWeather, © 2015

See weather overviewHow to use our weather pages